owner,sensor,date,latitude,longitude,sea_water_turbidity,qcFlag 
SCCF RECON,ioos:station:SCCF:18:1,2019-06-01T04:00:00Z,26.6955,-81.8138,34.91,11131222 
SCCF RECON,ioos:station:SCCF:18:1,2019-06-01T05:00:00Z,26.6955,-81.8138,7.37,11113222 
SCCF RECON,ioos:station:SCCF:18:1,2019-06-01T06:00:00Z,26.6955,-81.8138,7.08,11113222 
SCCF RECON,ioos:station:SCCF:18:1,2019-06-01T07:00:00Z,26.6955,-81.8138,34.75,11131222 
SCCF RECON,ioos:station:SCCF:18:1,2019-06-01T08:00:00Z,26.6955,-81.8138,7.78,11113222 
SCCF RECON,ioos:station:SCCF:18:1,2019-06-01T09:00:00Z,26.6955,-81.8138,8.04,11113222 
SCCF RECON,ioos:station:SCCF:18:1,2019-06-01T10:00:00Z,26.6955,-81.8138,34.37,11131222 
SCCF RECON,ioos:station:SCCF:18:1,2019-06-01T11:00:00Z,26.6955,-81.8138,9.87,11113222 
SCCF RECON,ioos:station:SCCF:18:1,2019-06-01T12:00:00Z,26.6955,-81.8138,9.82,11113222 
SCCF RECON,ioos:station:SCCF:18:1,2019-06-01T13:00:00Z,26.6955,-81.8138,46.09,11131222 
SCCF RECON,ioos:station:SCCF:18:1,2019-06-01T14:00:00Z,26.6955,-81.8138,8.88,11113222 
SCCF RECON,ioos:station:SCCF:18:1,2019-06-01T15:00:00Z,26.6955,-81.8138,12.25,11131222 
SCCF RECON,ioos:station:SCCF:18:1,2019-06-01T16:00:00Z,26.6955,-81.8138,57.48,11131222 
SCCF RECON,ioos:station:SCCF:18:1,2019-06-01T17:00:00Z,26.6955,-81.8138,7.16,11113222 
SCCF RECON,ioos:station:SCCF:18:1,2019-06-01T18:00:00Z,26.6955,-81.8138,11.7,11131222 
SCCF RECON,ioos:station:SCCF:18:1,2019-06-01T19:00:00Z,26.6955,-81.8138,31.55,11131222 
SCCF RECON,ioos:station:SCCF:18:1,2019-06-01T20:00:00Z,26.6955,-81.8138,8.18,11113222 
SCCF RECON,ioos:station:SCCF:18:1,2019-06-01T21:00:00Z,26.6955,-81.8138,15.74,11131222 
SCCF RECON,ioos:station:SCCF:18:1,2019-06-01T22:00:00Z,26.6955,-81.8138,45.6,11131222 
SCCF RECON,ioos:station:SCCF:18:1,2019-06-01T23:00:00Z,26.6955,-81.8138,8.77,11113222 
SCCF RECON,ioos:station:SCCF:18:1,2019-06-02T04:00:00Z,26.6955,-81.8138,67.74,11131222 
SCCF RECON,ioos:station:SCCF:18:1,2019-06-02T05:00:00Z,26.6955,-81.8138,10.49,11131222 
SCCF RECON,ioos:station:SCCF:18:1,2019-06-02T06:00:00Z,26.6955,-81.8138,13.48,11131222 
SCCF RECON,ioos:station:SCCF:18:1,2019-06-02T07:00:00Z,26.6955,-81.8138,51.82,11131222 
SCCF RECON,ioos:station:SCCF:18:1,2019-06-02T08:00:00Z,26.6955,-81.8138,9.96,11113222 
SCCF RECON,ioos:station:SCCF:18:1,2019-06-02T09:00:00Z,26.6955,-81.8138,23.24,11131222 
SCCF RECON,ioos:station:SCCF:18:1,2019-06-02T10:00:00Z,26.6955,-81.8138,70.8,11131222 
SCCF RECON,ioos:station:SCCF:18:1,2019-06-02T11:00:00Z,26.6955,-81.8138,12.76,11131222 
SCCF RECON,ioos:station:SCCF:18:1,2019-06-02T12:00:00Z,26.6955,-81.8138,24.35,11131222 
SCCF RECON,ioos:station:SCCF:18:1,2019-06-02T13:00:00Z,26.6955,-81.8138,82.01,11131222 
SCCF RECON,ioos:station:SCCF:18:1,2019-06-02T14:00:00Z,26.6955,-81.8138,12.15,11131222 
SCCF RECON,ioos:station:SCCF:18:1,2019-06-02T15:00:00Z,26.6955,-81.8138,23.82,11131222 
SCCF RECON,ioos:station:SCCF:18:1,2019-06-02T16:00:00Z,26.6955,-81.8138,87.96,11131222 
SCCF RECON,ioos:station:SCCF:18:1,2019-06-02T17:00:00Z,26.6955,-81.8138,13.13,11131222 
SCCF RECON,ioos:station:SCCF:18:1,2019-06-02T18:00:00Z,26.6955,-81.8138,18.35,11131222 
SCCF RECON,ioos:station:SCCF:18:1,2019-06-02T19:00:00Z,26.6955,-81.8138,92.27,11131222 
SCCF RECON,ioos:station:SCCF:18:1,2019-06-02T20:00:00Z,26.6955,-81.8138,10.97,11131222 
SCCF RECON,ioos:station:SCCF:18:1,2019-06-02T21:00:00Z,26.6955,-81.8138,33.02,11131222 
SCCF RECON,ioos:station:SCCF:18:1,2019-06-02T22:00:00Z,26.6955,-81.8138,84.74,11131222 
SCCF RECON,ioos:station:SCCF:18:1,2019-06-02T23:00:00Z,26.6955,-81.8138,17.65,11131222 
SCCF RECON,ioos:station:SCCF:18:1,2019-06-03T04:00:00Z,26.6955,-81.8138,84.2,11131222 
SCCF RECON,ioos:station:SCCF:18:1,2019-06-03T05:00:00Z,26.6955,-81.8138,21.06,11131222 
SCCF RECON,ioos:station:SCCF:18:1,2019-06-03T06:00:00Z,26.6955,-81.8138,41.86,11131222 
SCCF RECON,ioos:station:SCCF:18:1,2019-06-03T07:00:00Z,26.6955,-81.8138,40.46,11131222 
SCCF RECON,ioos:station:SCCF:18:1,2019-06-03T08:00:00Z,26.6955,-81.8138,18.53,11131222 
SCCF RECON,ioos:station:SCCF:18:1,2019-06-03T09:00:00Z,26.6955,-81.8138,47.49,11131222 
SCCF RECON,ioos:station:SCCF:18:1,2019-06-03T10:00:00Z,26.6955,-81.8138,82.02,11131222 
SCCF RECON,ioos:station:SCCF:18:1,2019-06-03T11:00:00Z,26.6955,-81.8138,21.9,11131222 
SCCF RECON,ioos:station:SCCF:18:1,2019-06-03T12:00:00Z,26.6955,-81.8138,52.98,11131222 
SCCF RECON,ioos:station:SCCF:18:1,2019-06-03T13:00:00Z,26.6955,-81.8138,60.83,11131222 
SCCF RECON,ioos:station:SCCF:18:1,2019-06-03T14:00:00Z,26.6955,-81.8138,23.69,11131222 
SCCF RECON,ioos:station:SCCF:18:1,2019-06-03T15:00:00Z,26.6955,-81.8138,49.47,11131222 
SCCF RECON,ioos:station:SCCF:18:1,2019-06-03T16:00:00Z,26.6955,-81.8138,70.99,11131222 
SCCF RECON,ioos:station:SCCF:18:1,2019-06-03T17:00:00Z,26.6955,-81.8138,18.73,11131222 
SCCF RECON,ioos:station:SCCF:18:1,2019-06-03T18:00:00Z,26.6955,-81.8138,39.87,11131222 
SCCF RECON,ioos:station:SCCF:18:1,2019-06-03T19:00:00Z,26.6955,-81.8138,26.61,11131222 
SCCF RECON,ioos:station:SCCF:18:1,2019-06-03T20:00:00Z,26.6955,-81.8138,21.68,11131222 
SCCF RECON,ioos:station:SCCF:18:1,2019-06-03T21:00:00Z,26.6955,-81.8138,39.95,11131222 
SCCF RECON,ioos:station:SCCF:18:1,2019-06-03T22:00:00Z,26.6955,-81.8138,43.63,11131222 
SCCF RECON,ioos:station:SCCF:18:1,2019-06-03T23:00:00Z,26.6955,-81.8138,27.11,11131222 
SCCF RECON,ioos:station:SCCF:18:1,2019-06-04T04:00:00Z,26.6955,-81.8138,74.42,11131222 
SCCF RECON,ioos:station:SCCF:18:1,2019-06-04T05:00:00Z,26.6955,-81.8138,32.7,11131222 
SCCF RECON,ioos:station:SCCF:18:1,2019-06-04T06:00:00Z,26.6955,-81.8138,68.63,11131222 
SCCF RECON,ioos:station:SCCF:18:1,2019-06-04T07:00:00Z,26.6955,-81.8138,77.42,11131222 
SCCF RECON,ioos:station:SCCF:18:1,2019-06-04T08:00:00Z,26.6955,-81.8138,26.88,11131222 
SCCF RECON,ioos:station:SCCF:18:1,2019-06-04T09:00:00Z,26.6955,-81.8138,60.74,11131222 
SCCF RECON,ioos:station:SCCF:18:1,2019-06-04T10:00:00Z,26.6955,-81.8138,65.0,11131222 
SCCF RECON,ioos:station:SCCF:18:1,2019-06-04T11:00:00Z,26.6955,-81.8138,35.6,11131222 
SCCF RECON,ioos:station:SCCF:18:1,2019-06-04T12:00:00Z,26.6955,-81.8138,58.92,11131222 
SCCF RECON,ioos:station:SCCF:18:1,2019-06-04T13:00:00Z,26.6955,-81.8138,60.64,11131222 
SCCF RECON,ioos:station:SCCF:18:1,2019-06-04T14:00:00Z,26.6955,-81.8138,37.82,11131222 
SCCF RECON,ioos:station:SCCF:18:1,2019-06-04T15:00:00Z,26.6955,-81.8138,79.75,11131222 
SCCF RECON,ioos:station:SCCF:18:1,2019-06-04T16:00:00Z,26.6955,-81.8138,61.47,11131222 
SCCF RECON,ioos:station:SCCF:18:1,2019-06-04T17:00:00Z,26.6955,-81.8138,37.55,11131222 
SCCF RECON,ioos:station:SCCF:18:1,2019-06-04T18:00:00Z,26.6955,-81.8138,57.52,11131222 
SCCF RECON,ioos:station:SCCF:18:1,2019-06-04T19:00:00Z,26.6955,-81.8138,71.51,11131222 
SCCF RECON,ioos:station:SCCF:18:1,2019-06-04T20:00:00Z,26.6955,-81.8138,46.09,11131222 
SCCF RECON,ioos:station:SCCF:18:1,2019-06-04T21:00:00Z,26.6955,-81.8138,62.57,11131222 
SCCF RECON,ioos:station:SCCF:18:1,2019-06-04T22:00:00Z,26.6955,-81.8138,68.89,11131222 
SCCF RECON,ioos:station:SCCF:18:1,2019-06-04T23:00:00Z,26.6955,-81.8138,59.08,11131222 
SCCF RECON,ioos:station:SCCF:18:1,2019-06-05T04:00:00Z,26.6955,-81.8138,85.86,11131222 
SCCF RECON,ioos:station:SCCF:18:1,2019-06-05T05:00:00Z,26.6955,-81.8138,72.38,11131222 
SCCF RECON,ioos:station:SCCF:18:1,2019-06-05T06:00:00Z,26.6955,-81.8138,97.86,11131222 
SCCF RECON,ioos:station:SCCF:18:1,2019-06-05T07:00:00Z,26.6955,-81.8138,89.56,11131222 
SCCF RECON,ioos:station:SCCF:18:1,2019-06-05T08:00:00Z,26.6955,-81.8138,68.05,11131222 
SCCF RECON,ioos:station:SCCF:18:1,2019-06-05T09:00:00Z,26.6955,-81.8138,80.06,11131222 
SCCF RECON,ioos:station:SCCF:18:1,2019-06-05T10:00:00Z,26.6955,-81.8138,83.78,11131222 
SCCF RECON,ioos:station:SCCF:18:1,2019-06-05T11:00:00Z,26.6955,-81.8138,73.71,11131222 
SCCF RECON,ioos:station:SCCF:18:1,2019-06-05T13:00:00Z,26.6955,-81.8138,82.86,11131222 
SCCF RECON,ioos:station:SCCF:18:1,2019-06-05T14:00:00Z,26.6955,-81.8138,67.12,11131222 
SCCF RECON,ioos:station:SCCF:18:1,2019-06-05T15:00:00Z,26.6955,-81.8138,99.16,11131222 
SCCF RECON,ioos:station:SCCF:18:1,2019-06-05T16:00:00Z,26.6955,-81.8138,56.73,11131222 
SCCF RECON,ioos:station:SCCF:18:1,2019-06-05T17:00:00Z,26.6955,-81.8138,77.08,11131222 
SCCF RECON,ioos:station:SCCF:18:1,2019-06-05T18:00:00Z,26.6955,-81.8138,93.98,11131222 
SCCF RECON,ioos:station:SCCF:18:1,2019-06-05T19:00:00Z,26.6955,-81.8138,90.36,11131222 
SCCF RECON,ioos:station:SCCF:18:1,2019-06-05T20:00:00Z,26.6955,-81.8138,70.69,11131222 
SCCF RECON,ioos:station:SCCF:18:1,2019-06-05T21:00:00Z,26.6955,-81.8138,84.26,11131222 
SCCF RECON,ioos:station:SCCF:18:1,2019-06-05T22:00:00Z,26.6955,-81.8138,79.56,11131222 
SCCF RECON,ioos:station:SCCF:18:1,2019-06-05T23:00:00Z,26.6955,-81.8138,84.9,11131222 
SCCF RECON,ioos:station:SCCF:18:1,2019-06-06T04:00:00Z,26.6955,-81.8138,95.07,11131222 
SCCF RECON,ioos:station:SCCF:18:1,2019-06-06T05:00:00Z,26.6955,-81.8138,94.97,11131222 
SCCF RECON,ioos:station:SCCF:18:1,2019-06-06T06:00:00Z,26.6955,-81.8138,125.82,11141222 
SCCF RECON,ioos:station:SCCF:18:1,2019-06-06T07:00:00Z,26.6955,-81.8138,93.13,11131222 
SCCF RECON,ioos:station:SCCF:18:1,2019-06-06T08:00:00Z,26.6955,-81.8138,95.78,11131222 
SCCF RECON,ioos:station:SCCF:18:1,2019-06-06T09:00:00Z,26.6955,-81.8138,114.05,11141222 
SCCF RECON,ioos:station:SCCF:18:1,2019-06-06T10:00:00Z,26.6955,-81.8138,98.64,11131222 
SCCF RECON,ioos:station:SCCF:18:1,2019-06-06T11:00:00Z,26.6955,-81.8138,102.58,11141222 
SCCF RECON,ioos:station:SCCF:18:1,2019-06-06T12:00:00Z,26.6955,-81.8138,119.86,11141222 
SCCF RECON,ioos:station:SCCF:18:1,2019-06-06T13:00:00Z,26.6955,-81.8138,96.64,11131222 
SCCF RECON,ioos:station:SCCF:18:1,2019-06-06T14:00:00Z,26.6955,-81.8138,99.5,11131222 
SCCF RECON,ioos:station:SCCF:18:1,2019-06-06T15:00:00Z,26.6955,-81.8138,158.8,11141222 
SCCF RECON,ioos:station:SCCF:18:1,2019-06-06T16:00:00Z,26.6955,-81.8138,87.6,11131222 
SCCF RECON,ioos:station:SCCF:18:1,2019-06-06T17:00:00Z,26.6955,-81.8138,97.94,11131222 
SCCF RECON,ioos:station:SCCF:18:1,2019-06-06T18:00:00Z,26.6955,-81.8138,127.92,11141222 
SCCF RECON,ioos:station:SCCF:18:1,2019-06-06T19:00:00Z,26.6955,-81.8138,105.27,11141222 
SCCF RECON,ioos:station:SCCF:18:1,2019-06-06T20:00:00Z,26.6955,-81.8138,105.34,11141222 
SCCF RECON,ioos:station:SCCF:18:1,2019-06-06T21:00:00Z,26.6955,-81.8138,124.58,11141222 
SCCF RECON,ioos:station:SCCF:18:1,2019-06-06T22:00:00Z,26.6955,-81.8138,106.17,11141222 
SCCF RECON,ioos:station:SCCF:18:1,2019-06-06T23:00:00Z,26.6955,-81.8138,116.47,11141222 
SCCF RECON,ioos:station:SCCF:18:1,2019-06-07T04:00:00Z,26.6955,-81.8138,106.54,11141222 
SCCF RECON,ioos:station:SCCF:18:1,2019-06-07T05:00:00Z,26.6955,-81.8138,130.54,11141222 
SCCF RECON,ioos:station:SCCF:18:1,2019-06-07T06:00:00Z,26.6955,-81.8138,148.23,11141222 
SCCF RECON,ioos:station:SCCF:18:1,2019-06-07T07:00:00Z,26.6955,-81.8138,102.47,11141222 
SCCF RECON,ioos:station:SCCF:18:1,2019-06-07T08:00:00Z,26.6955,-81.8138,138.28,11141222 
SCCF RECON,ioos:station:SCCF:18:1,2019-06-07T09:00:00Z,26.6955,-81.8138,146.09,11141222 
SCCF RECON,ioos:station:SCCF:18:1,2019-06-07T10:00:00Z,26.6955,-81.8138,124.91,11141222 
SCCF RECON,ioos:station:SCCF:18:1,2019-06-07T11:00:00Z,26.6955,-81.8138,105.84,11141222 
SCCF RECON,ioos:station:SCCF:18:1,2019-06-07T12:00:00Z,26.6955,-81.8138,151.42,11141222 
SCCF RECON,ioos:station:SCCF:18:1,2019-06-07T13:00:00Z,26.6955,-81.8138,112.73,11141222 
SCCF RECON,ioos:station:SCCF:18:1,2019-06-07T14:00:00Z,26.6955,-81.8138,133.78,11141222 
SCCF RECON,ioos:station:SCCF:18:1,2019-06-07T15:00:00Z,26.6955,-81.8138,151.59,11141222 
SCCF RECON,ioos:station:SCCF:18:1,2019-06-07T16:00:00Z,26.6955,-81.8138,111.7,11141222 
SCCF RECON,ioos:station:SCCF:18:1,2019-06-07T17:00:00Z,26.6955,-81.8138,131.44,11141222 
SCCF RECON,ioos:station:SCCF:18:1,2019-06-07T19:00:00Z,26.6955,-81.8138,110.0,11141222 
SCCF RECON,ioos:station:SCCF:18:1,2019-06-07T20:00:00Z,26.6955,-81.8138,117.26,11141222 
SCCF RECON,ioos:station:SCCF:18:1,2019-06-07T21:00:00Z,26.6955,-81.8138,142.89,11141222 
SCCF RECON,ioos:station:SCCF:18:1,2019-06-07T22:00:00Z,26.6955,-81.8138,112.76,11141222 
SCCF RECON,ioos:station:SCCF:18:1,2019-06-07T23:00:00Z,26.6955,-81.8138,132.58,11141222 
SCCF RECON,ioos:station:SCCF:18:1,2019-06-08T04:00:00Z,26.6955,-81.8138,112.38,11141222 
SCCF RECON,ioos:station:SCCF:18:1,2019-06-08T05:00:00Z,26.6955,-81.8138,141.05,11141222 
SCCF RECON,ioos:station:SCCF:18:1,2019-06-08T06:00:00Z,26.6955,-81.8138,154.11,11141222 
SCCF RECON,ioos:station:SCCF:18:1,2019-06-08T07:00:00Z,26.6955,-81.8138,117.2,11141222 
SCCF RECON,ioos:station:SCCF:18:1,2019-06-08T08:00:00Z,26.6955,-81.8138,143.57,11141222 
SCCF RECON,ioos:station:SCCF:18:1,2019-06-08T09:00:00Z,26.6955,-81.8138,159.18,11141222 
SCCF RECON,ioos:station:SCCF:18:1,2019-06-08T10:00:00Z,26.6955,-81.8138,117.76,11141222 
SCCF RECON,ioos:station:SCCF:18:1,2019-06-08T11:00:00Z,26.6955,-81.8138,141.61,11141222 
SCCF RECON,ioos:station:SCCF:18:1,2019-06-08T12:00:00Z,26.6955,-81.8138,157.23,11141222 
SCCF RECON,ioos:station:SCCF:18:1,2019-06-08T13:00:00Z,26.6955,-81.8138,94.77,11131222 
SCCF RECON,ioos:station:SCCF:18:1,2019-06-08T14:00:00Z,26.6955,-81.8138,93.29,11131222 
SCCF RECON,ioos:station:SCCF:18:1,2019-06-08T15:00:00Z,26.6955,-81.8138,157.47,11141222 
SCCF RECON,ioos:station:SCCF:18:1,2019-06-08T16:00:00Z,26.6955,-81.8138,142.27,11141222 
SCCF RECON,ioos:station:SCCF:18:1,2019-06-08T17:00:00Z,26.6955,-81.8138,128.26,11141222 
SCCF RECON,ioos:station:SCCF:18:1,2019-06-08T18:00:00Z,26.6955,-81.8138,158.79,11141222 
SCCF RECON,ioos:station:SCCF:18:1,2019-06-08T19:00:00Z,26.6955,-81.8138,136.0,11141222 
SCCF RECON,ioos:station:SCCF:18:1,2019-06-09T04:00:00Z,26.6955,-81.8138,100.59,11141222 
SCCF RECON,ioos:station:SCCF:18:1,2019-06-09T05:00:00Z,26.6955,-81.8138,135.01,11141222 
SCCF RECON,ioos:station:SCCF:18:1,2019-06-09T06:00:00Z,26.6955,-81.8138,187.23,11141222 
SCCF RECON,ioos:station:SCCF:18:1,2019-06-09T07:00:00Z,26.6955,-81.8138,102.16,11141222 
SCCF RECON,ioos:station:SCCF:18:1,2019-06-09T08:00:00Z,26.6955,-81.8138,134.89,11141222 
SCCF RECON,ioos:station:SCCF:18:1,2019-06-09T09:00:00Z,26.6955,-81.8138,187.42,11141222 
SCCF RECON,ioos:station:SCCF:18:1,2019-06-09T10:00:00Z,26.6955,-81.8138,99.8,11131222 
SCCF RECON,ioos:station:SCCF:18:1,2019-06-09T11:00:00Z,26.6955,-81.8138,150.65,11141222 
SCCF RECON,ioos:station:SCCF:18:1,2019-06-09T12:00:00Z,26.6955,-81.8138,187.54,11141222 
SCCF RECON,ioos:station:SCCF:18:1,2019-06-09T13:00:00Z,26.6955,-81.8138,127.6,11141222 
SCCF RECON,ioos:station:SCCF:18:1,2019-06-09T14:00:00Z,26.6955,-81.8138,156.13,11141222 
SCCF RECON,ioos:station:SCCF:18:1,2019-06-09T15:00:00Z,26.6955,-81.8138,165.22,11141222 
SCCF RECON,ioos:station:SCCF:18:1,2019-06-09T16:00:00Z,26.6955,-81.8138,135.09,11141222 
SCCF RECON,ioos:station:SCCF:18:1,2019-06-09T17:00:00Z,26.6955,-81.8138,151.87,11141222 
SCCF RECON,ioos:station:SCCF:18:1,2019-06-09T18:00:00Z,26.6955,-81.8138,178.09,11141222 
SCCF RECON,ioos:station:SCCF:18:1,2019-06-09T19:00:00Z,26.6955,-81.8138,131.6,11141222 
SCCF RECON,ioos:station:SCCF:18:1,2019-06-09T20:00:00Z,26.6955,-81.8138,154.7,11141222 
SCCF RECON,ioos:station:SCCF:18:1,2019-06-09T21:00:00Z,26.6955,-81.8138,173.98,11141222 
SCCF RECON,ioos:station:SCCF:18:1,2019-06-09T22:00:00Z,26.6955,-81.8138,82.44,11131222 
SCCF RECON,ioos:station:SCCF:18:1,2019-06-09T23:00:00Z,26.6955,-81.8138,152.25,11141222 
SCCF RECON,ioos:station:SCCF:18:1,2019-06-10T04:00:00Z,26.6955,-81.8138,104.38,11141222 
SCCF RECON,ioos:station:SCCF:18:1,2019-06-10T05:00:00Z,26.6955,-81.8138,161.78,11141222 
SCCF RECON,ioos:station:SCCF:18:1,2019-06-10T06:00:00Z,26.6955,-81.8138,175.47,11141222 
SCCF RECON,ioos:station:SCCF:18:1,2019-06-10T07:00:00Z,26.6955,-81.8138,88.32,11131222 
SCCF RECON,ioos:station:SCCF:18:1,2019-06-10T08:00:00Z,26.6955,-81.8138,152.62,11141222 
SCCF RECON,ioos:station:SCCF:18:1,2019-06-10T09:00:00Z,26.6955,-81.8138,176.61,11141222 
SCCF RECON,ioos:station:SCCF:18:1,2019-06-10T10:00:00Z,26.6955,-81.8138,123.68,11141222 
SCCF RECON,ioos:station:SCCF:18:1,2019-06-10T11:00:00Z,26.6955,-81.8138,121.89,11141222 
SCCF RECON,ioos:station:SCCF:18:1,2019-06-10T12:00:00Z,26.6955,-81.8138,165.53,11141222 
SCCF RECON,ioos:station:SCCF:18:1,2019-06-10T13:00:00Z,26.6955,-81.8138,119.78,11141222 
SCCF RECON,ioos:station:SCCF:18:1,2019-06-10T14:00:00Z,26.6955,-81.8138,117.98,11141222 
SCCF RECON,ioos:station:SCCF:18:1,2019-06-10T15:00:00Z,26.6955,-81.8138,176.88,11141222 
SCCF RECON,ioos:station:SCCF:18:1,2019-06-10T16:00:00Z,26.6955,-81.8138,115.35,11141222 
SCCF RECON,ioos:station:SCCF:18:1,2019-06-10T17:00:00Z,26.6955,-81.8138,163.07,11141222 
SCCF RECON,ioos:station:SCCF:18:1,2019-06-10T18:00:00Z,26.6955,-81.8138,166.11,11141222 
SCCF RECON,ioos:station:SCCF:18:1,2019-06-10T19:00:00Z,26.6955,-81.8138,126.03,11141222 
SCCF RECON,ioos:station:SCCF:18:1,2019-06-10T20:00:00Z,26.6955,-81.8138,164.94,11141222 
SCCF RECON,ioos:station:SCCF:18:1,2019-06-10T21:00:00Z,26.6955,-81.8138,163.14,11141222 
SCCF RECON,ioos:station:SCCF:18:1,2019-06-10T22:00:00Z,26.6955,-81.8138,124.64,11141222 
SCCF RECON,ioos:station:SCCF:18:1,2019-06-10T23:00:00Z,26.6955,-81.8138,147.41,11141222 
SCCF RECON,ioos:station:SCCF:18:1,2019-06-11T04:00:00Z,26.6955,-81.8138,74.51,11131222 
SCCF RECON,ioos:station:SCCF:18:1,2019-06-11T05:00:00Z,26.6955,-81.8138,146.4,11141222 
SCCF RECON,ioos:station:SCCF:18:1,2019-06-11T06:00:00Z,26.6955,-81.8138,159.66,11141222 
SCCF RECON,ioos:station:SCCF:18:1,2019-06-11T07:00:00Z,26.6955,-81.8138,89.12,11131222 
SCCF RECON,ioos:station:SCCF:18:1,2019-06-11T08:00:00Z,26.6955,-81.8138,135.27,11141222 
SCCF RECON,ioos:station:SCCF:18:1,2019-06-11T09:00:00Z,26.6955,-81.8138,157.68,11141222 
SCCF RECON,ioos:station:SCCF:18:1,2019-06-11T10:00:00Z,26.6955,-81.8138,82.98,11131222 
SCCF RECON,ioos:station:SCCF:18:1,2019-06-11T11:00:00Z,26.6955,-81.8138,170.29,11141222 
SCCF RECON,ioos:station:SCCF:18:1,2019-06-11T12:00:00Z,26.6955,-81.8138,148.16,11141222 
SCCF RECON,ioos:station:SCCF:18:1,2019-06-11T13:00:00Z,26.6955,-81.8138,84.72,11131222 
SCCF RECON,ioos:station:SCCF:18:1,2019-06-11T14:00:00Z,26.6955,-81.8138,154.8,11141222 
SCCF RECON,ioos:station:SCCF:18:1,2019-06-11T16:00:00Z,26.6955,-81.8138,1.71,11113222 
SCCF RECON,ioos:station:SCCF:18:1,2019-06-11T17:00:00Z,26.6955,-81.8138,2.0,11113222 
SCCF RECON,ioos:station:SCCF:18:1,2019-06-11T18:00:00Z,26.6955,-81.8138,2.02,11113222 
SCCF RECON,ioos:station:SCCF:18:1,2019-06-11T21:00:00Z,26.6955,-81.8138,1.89,11113222 
SCCF RECON,ioos:station:SCCF:18:1,2019-06-11T22:00:00Z,26.6955,-81.8138,2.34,11113222 
SCCF RECON,ioos:station:SCCF:18:1,2019-06-11T23:00:00Z,26.6955,-81.8138,1.93,11113222 
SCCF RECON,ioos:station:SCCF:18:1,2019-06-12T04:00:00Z,26.6955,-81.8138,1.69,11113222 
SCCF RECON,ioos:station:SCCF:18:1,2019-06-12T05:00:00Z,26.6955,-81.8138,1.63,11113222 
SCCF RECON,ioos:station:SCCF:18:1,2019-06-12T06:00:00Z,26.6955,-81.8138,1.62,11113222 
SCCF RECON,ioos:station:SCCF:18:1,2019-06-12T07:00:00Z,26.6955,-81.8138,2.38,11113222 
SCCF RECON,ioos:station:SCCF:18:1,2019-06-12T08:00:00Z,26.6955,-81.8138,1.75,11113222 
SCCF RECON,ioos:station:SCCF:18:1,2019-06-12T09:00:00Z,26.6955,-81.8138,1.74,11113222 
SCCF RECON,ioos:station:SCCF:18:1,2019-06-12T10:00:00Z,26.6955,-81.8138,1.53,11113222 
SCCF RECON,ioos:station:SCCF:18:1,2019-06-12T11:00:00Z,26.6955,-81.8138,1.56,11113222 
SCCF RECON,ioos:station:SCCF:18:1,2019-06-12T12:00:00Z,26.6955,-81.8138,20.26,11131222 
SCCF RECON,ioos:station:SCCF:18:1,2019-06-12T13:00:00Z,26.6955,-81.8138,1.92,11113222 
SCCF RECON,ioos:station:SCCF:18:1,2019-06-12T14:00:00Z,26.6955,-81.8138,2.23,11113222 
SCCF RECON,ioos:station:SCCF:18:1,2019-06-12T15:00:00Z,26.6955,-81.8138,2.59,11113222 
SCCF RECON,ioos:station:SCCF:18:1,2019-06-12T16:00:00Z,26.6955,-81.8138,1.76,11113222 
SCCF RECON,ioos:station:SCCF:18:1,2019-06-12T17:00:00Z,26.6955,-81.8138,1.8,11113222 
SCCF RECON,ioos:station:SCCF:18:1,2019-06-12T18:00:00Z,26.6955,-81.8138,2.04,11113222 
SCCF RECON,ioos:station:SCCF:18:1,2019-06-12T19:00:00Z,26.6955,-81.8138,1.89,11113222 
SCCF RECON,ioos:station:SCCF:18:1,2019-06-12T20:00:00Z,26.6955,-81.8138,3.49,11113222 
SCCF RECON,ioos:station:SCCF:18:1,2019-06-12T21:00:00Z,26.6955,-81.8138,2.09,11113222 
SCCF RECON,ioos:station:SCCF:18:1,2019-06-12T22:00:00Z,26.6955,-81.8138,1.99,11113222 
SCCF RECON,ioos:station:SCCF:18:1,2019-06-12T23:00:00Z,26.6955,-81.8138,2.36,11113222 
SCCF RECON,ioos:station:SCCF:18:1,2019-06-13T05:00:00Z,26.6955,-81.8138,1.95,11113222 
SCCF RECON,ioos:station:SCCF:18:1,2019-06-13T06:00:00Z,26.6955,-81.8138,2.18,11113222 
SCCF RECON,ioos:station:SCCF:18:1,2019-06-13T07:00:00Z,26.6955,-81.8138,2.01,11113222 
SCCF RECON,ioos:station:SCCF:18:1,2019-06-13T08:00:00Z,26.6955,-81.8138,1.86,11113222 
SCCF RECON,ioos:station:SCCF:18:1,2019-06-13T09:00:00Z,26.6955,-81.8138,1.78,11113222 
SCCF RECON,ioos:station:SCCF:18:1,2019-06-13T10:00:00Z,26.6955,-81.8138,2.02,11113222 
SCCF RECON,ioos:station:SCCF:18:1,2019-06-13T11:00:00Z,26.6955,-81.8138,1.47,11113222 
SCCF RECON,ioos:station:SCCF:18:1,2019-06-13T12:00:00Z,26.6955,-81.8138,1.7,11113222 
SCCF RECON,ioos:station:SCCF:18:1,2019-06-13T13:00:00Z,26.6955,-81.8138,1.61,11113222 
SCCF RECON,ioos:station:SCCF:18:1,2019-06-13T14:00:00Z,26.6955,-81.8138,3.77,11113222 
SCCF RECON,ioos:station:SCCF:18:1,2019-06-13T15:00:00Z,26.6955,-81.8138,1.89,11113222 
SCCF RECON,ioos:station:SCCF:18:1,2019-06-13T16:00:00Z,26.6955,-81.8138,1.76,11113222 
SCCF RECON,ioos:station:SCCF:18:1,2019-06-13T17:00:00Z,26.6955,-81.8138,2.18,11113222 
SCCF RECON,ioos:station:SCCF:18:1,2019-06-13T18:00:00Z,26.6955,-81.8138,2.28,11113222 
SCCF RECON,ioos:station:SCCF:18:1,2019-06-13T19:00:00Z,26.6955,-81.8138,1.64,11113222 
SCCF RECON,ioos:station:SCCF:18:1,2019-06-13T20:00:00Z,26.6955,-81.8138,1.78,11113222 
SCCF RECON,ioos:station:SCCF:18:1,2019-06-13T21:00:00Z,26.6955,-81.8138,2.04,11113222 
SCCF RECON,ioos:station:SCCF:18:1,2019-06-13T22:00:00Z,26.6955,-81.8138,2.05,11113222 
SCCF RECON,ioos:station:SCCF:18:1,2019-06-13T23:00:00Z,26.6955,-81.8138,2.21,11113222 
SCCF RECON,ioos:station:SCCF:18:1,2019-06-14T04:00:00Z,26.6955,-81.8138,1.72,11113222 
SCCF RECON,ioos:station:SCCF:18:1,2019-06-14T05:00:00Z,26.6955,-81.8138,2.38,11113222 
SCCF RECON,ioos:station:SCCF:18:1,2019-06-14T06:00:00Z,26.6955,-81.8138,2.0,11113222 
SCCF RECON,ioos:station:SCCF:18:1,2019-06-14T07:00:00Z,26.6955,-81.8138,1.78,11113222 
SCCF RECON,ioos:station:SCCF:18:1,2019-06-14T08:00:00Z,26.6955,-81.8138,1.82,11113222 
SCCF RECON,ioos:station:SCCF:18:1,2019-06-14T09:00:00Z,26.6955,-81.8138,2.05,11113222 
SCCF RECON,ioos:station:SCCF:18:1,2019-06-14T10:00:00Z,26.6955,-81.8138,1.87,11113222 
SCCF RECON,ioos:station:SCCF:18:1,2019-06-14T11:00:00Z,26.6955,-81.8138,1.61,11113222 
SCCF RECON,ioos:station:SCCF:18:1,2019-06-14T12:00:00Z,26.6955,-81.8138,1.98,11113222 
SCCF RECON,ioos:station:SCCF:18:1,2019-06-14T13:00:00Z,26.6955,-81.8138,2.04,11113222 
SCCF RECON,ioos:station:SCCF:18:1,2019-06-14T14:00:00Z,26.6955,-81.8138,1.86,11113222 
SCCF RECON,ioos:station:SCCF:18:1,2019-06-14T15:00:00Z,26.6955,-81.8138,2.42,11113222 
SCCF RECON,ioos:station:SCCF:18:1,2019-06-14T16:00:00Z,26.6955,-81.8138,2.19,11113222 
SCCF RECON,ioos:station:SCCF:18:1,2019-06-14T18:00:00Z,26.6955,-81.8138,1.87,11113222 
SCCF RECON,ioos:station:SCCF:18:1,2019-06-14T19:00:00Z,26.6955,-81.8138,1.86,11113222 
SCCF RECON,ioos:station:SCCF:18:1,2019-06-14T20:00:00Z,26.6955,-81.8138,4.41,11113222 
SCCF RECON,ioos:station:SCCF:18:1,2019-06-14T21:00:00Z,26.6955,-81.8138,3.11,11113222 
SCCF RECON,ioos:station:SCCF:18:1,2019-06-14T22:00:00Z,26.6955,-81.8138,2.8,11113222 
SCCF RECON,ioos:station:SCCF:18:1,2019-06-14T23:00:00Z,26.6955,-81.8138,2.82,11113222 
SCCF RECON,ioos:station:SCCF:18:1,2019-06-15T04:00:00Z,26.6955,-81.8138,2.2,11113222 
SCCF RECON,ioos:station:SCCF:18:1,2019-06-15T05:00:00Z,26.6955,-81.8138,2.17,11113222 
SCCF RECON,ioos:station:SCCF:18:1,2019-06-15T06:00:00Z,26.6955,-81.8138,2.09,11113222 